Weather History for Goodland, KS

Change the Weather History Date:

Thursday, October 25, 2012

  Actual Average Record
Temperature  
Mean Temperature 37 °F 49 °F  
Max Temperature 45 °F 63 °F 88 °F (1959)
Min Temperature 28 °F 34 °F 18 °F (1997)
Degree Days  
Heating Degree Days 28 16  
Month to date heating degree days 355 307  
Since 1 July heating degree days 431 431  
Cooling Degree Days 0 0  
Month to date cooling degree days 2 5  
Year to date cooling degree days 1338 938  
Moisture  
Dew Point 27 °F    
Average Humidity 67    
Maximum Humidity 92    
Minimum Humidity 41    
Precipitation  
Precipitation T in 0.04 in 1.08 in (1997)
Month to date precipitation 0.41 1.16  
Year to date precipitation 9.02 18.28  
Snow  
Snow T in 0.10 in - ()
Month to date snowfall 0.5 1.6  
Since 1 July snowfall 0.5 2.0  
Since 1 September snowfall 0.5 2.0  
Snow Depth T in    
Sea Level Pressure  
Sea Level Pressure 30.19 in    
Wind  
Wind Speed 14 mph (North)    
Max Wind Speed 29 mph    
Max Gust Speed 39 mph    
Visibility 8 miles    
Events Snow    
T = Trace of Precipitation, MM = Missing Value Source: NWS Daily Summary

Daily Weather History Graph

Daily Weather History Graph

Search for Another Location

Airport:

Trip Planner

Search our weather history database for the weather conditions in past years. The results will help you decide how hot, cold, wet, or windy it might be!

Date:

Astronomy

Oct. 25, 2012 Rise Set
Actual Time 7:07 AM MDT 5:53 PM MDT
Civil Twilight 6:40 AM MDT 6:20 PM MDT
Nautical Twilight 6:08 AM MDT 6:52 PM MDT
Astronomical Twilight 5:37 AM MDT 7:23 PM MDT
Moon 3:39 PM MDT (10/25) 3:07 AM MDT (10/25)
Length of Visible Light 11h 40m
Length of Day
10h 45m
Waxing Gibbous, 85% of the Moon is Illuminated
Oct 25
Waxing Gibbous
Oct 29
Full
Nov 6
Last Quarter
Nov 13
New
Nov 20
First Quarter

Hourly Weather History & Observations

Time (MDT) Temp. Windchill Dew Point Humidity Pressure Visibility Wind Dir Wind Speed Gust Speed Precip Events Conditions
12:53 AM 32.0 °F 19.2 °F 30.0 °F 92% 29.96 in 10.0 mi North 23.0 mph 32.2 mph 0.00 in   Overcast
1:14 AM 32.0 °F 18.9 °F 30.2 °F 93% 29.96 in 10.0 mi North 24.2 mph 33.4 mph N/A   Overcast
1:53 AM 32.0 °F 19.8 °F 30.0 °F 92% 30.01 in 8.0 mi North 20.7 mph - 0.00 in Snow Light Snow
2:53 AM 32.0 °F 19.8 °F 30.0 °F 92% 29.99 in 3.0 mi North 20.7 mph 27.6 mph 0.00 in Snow Light Snow
3:38 AM 32.0 °F 20.1 °F 30.2 °F 93% 30.02 in 10.0 mi NNW 19.6 mph 28.8 mph 0.00 in   Overcast
3:53 AM 32.0 °F 19.8 °F 28.9 °F 88% 30.04 in 6.0 mi North 20.7 mph 29.9 mph 0.00 in Snow Light Snow
4:36 AM 30.2 °F 17.4 °F 28.4 °F 93% 30.06 in 2.5 mi North 20.7 mph 29.9 mph 0.00 in Snow Light Snow
4:53 AM 30.9 °F 17.8 °F 28.9 °F 92% 30.08 in 2.0 mi NNW 23.0 mph 29.9 mph 0.00 in Snow Light Snow
5:05 AM 30.2 °F 17.8 °F 28.4 °F 93% 30.08 in 2.5 mi NNW 19.6 mph 29.9 mph 0.00 in Snow Light Snow
5:08 AM 30.2 °F 17.1 °F 28.4 °F 93% 30.09 in 3.0 mi NNW 21.9 mph 29.9 mph 0.00 in Snow Light Snow
5:12 AM 30.2 °F 17.4 °F 28.4 °F 93% 30.09 in 3.0 mi NNW 20.7 mph 26.5 mph 0.00 in Snow Light Snow
5:14 AM 30.2 °F 18.1 °F 28.4 °F 93% 30.09 in 2.5 mi NNW 18.4 mph 26.5 mph 0.00 in Snow Light Snow
5:23 AM 30.2 °F 16.8 °F 28.4 °F 93% 30.09 in 3.0 mi NNW 23.0 mph 31.1 mph 0.00 in Snow Light Snow
5:53 AM 30.9 °F 18.1 °F 28.9 °F 92% 30.12 in 6.0 mi NNW 21.9 mph 32.2 mph 0.00 in Snow Light Snow
6:13 AM 30.2 °F 16.5 °F 28.4 °F 93% 30.12 in 10.0 mi North 24.2 mph 34.5 mph N/A   Overcast
6:53 AM 30.2 °F 16.8 °F 26.6 °F 86% 30.14 in 10.0 mi North 23.0 mph 33.4 mph N/A   Mostly Cloudy
7:53 AM 30.0 °F 16.9 °F 27.0 °F 88% 30.21 in 10.0 mi North 21.9 mph 27.6 mph N/A   Overcast
8:53 AM 30.9 °F 19.1 °F 28.0 °F 89% 30.22 in 10.0 mi North 18.4 mph 25.3 mph N/A   Mostly Cloudy
9:05 AM 32.0 °F 19.8 °F 28.4 °F 87% 30.20 in 10.0 mi North 20.7 mph 26.5 mph N/A   Scattered Clouds
9:53 AM 34.0 °F 22.7 °F 28.0 °F 79% 30.24 in 10.0 mi NNW 19.6 mph - N/A   Scattered Clouds
10:53 AM 37.0 °F 27.0 °F 27.0 °F 67% 30.25 in 10.0 mi North 18.4 mph 26.5 mph N/A   Partly Cloudy
11:53 AM 39.9 °F 31.1 °F 28.0 °F 63% 30.25 in 10.0 mi North 17.3 mph 26.5 mph N/A   Scattered Clouds
12:53 PM 41.0 °F 32.8 °F 27.0 °F 57% 30.24 in 10.0 mi North 16.1 mph 21.9 mph N/A   Scattered Clouds
1:53 PM 42.1 °F 34.5 °F 25.0 °F 51% 30.24 in 10.0 mi North 15.0 mph 21.9 mph N/A   Partly Cloudy
2:53 PM 44.1 °F 38.1 °F 23.0 °F 43% 30.25 in 10.0 mi North 11.5 mph 18.4 mph N/A   Partly Cloudy
3:53 PM 43.0 °F 37.7 °F 21.9 °F 43% 30.26 in 10.0 mi NNE 9.2 mph - N/A   Clear
4:53 PM 42.1 °F 35.7 °F 21.9 °F 45% 30.27 in 10.0 mi NNE 11.5 mph - N/A   Clear
5:53 PM 34.0 °F 27.2 °F 23.0 °F 64% 30.30 in 10.0 mi NE 8.1 mph - N/A   Clear
6:53 PM 30.9 °F 25.2 °F 21.9 °F 69% 30.34 in 10.0 mi NE 5.8 mph - N/A   Clear
7:53 PM 28.0 °F 20.8 °F 21.9 °F 78% 30.38 in 10.0 mi NNE 6.9 mph - N/A   Clear
8:53 PM 30.0 °F - 24.1 °F 79% 30.39 in 10.0 mi Calm Calm - N/A   Clear
9:53 PM 30.0 °F - 24.1 °F 79% 30.41 in 10.0 mi Calm Calm - N/A   Clear
10:53 PM 28.0 °F 22.8 °F 23.0 °F 81% 30.39 in 10.0 mi ENE 4.6 mph - N/A   Clear
11:53 PM 28.9 °F 21.9 °F 24.1 °F 82% 30.38 in 10.0 mi ENE 6.9 mph - N/A   Clear